Flag for Belgium Weather past 2 weeks in Charleroi, Belgium

Now
77 °F

Clear.


Feels Like: 79 °F
Forecast: 66 / 89 °F
Wind: 9 mph from Southeast

Location: Charleroi / Gosselies

Current Time: Jul 2, 2015 at 3:42:47 AM

Latest Report: Jul 2, 2015 at 2:50 AM


Visibility: 10 mi

Pressure: 30.01 "Hg

Humidity: 57%

Dew point: 61 °F

Location of CharleroiLocation

Historic Weather in Charleroi — Graph

°F

Charleroi temperature yesterday

Maximum temperature yesterday: 91 °F (at 2:50 PM)
Minimum temperature yesterday: 66 °F (at 4:20 AM)
Average temperature yesterday: 80 °F

Past Weeks' High & Low Weather Summary

 TemperatureHumidityPressure
High91 °F (Jul 1, 2:50 PM)100% (Jun 18, 4:20 AM)30.30 "Hg (Jun 18, 4:20 AM)
Low46 °F (Jun 17, 4:20 AM)28% (Jun 30, 2:50 PM)29.74 "Hg (Jun 22, 6:20 PM)
Average63 °F68%30.10 "Hg
* Reported Jun 17 2:20 AM — Jul 2 1:50 AM, Charleroi, Weather by CustomWeather, © 2015

Note: Actual official high and low records may vary slightly from our data, if they occured in-between our weather recording intervals... More about our weather records

Advertising

Charleroi weather history for previous 24 hours

 ConditionsComfort  
Time TempWeatherWind HumidityBarometerVisibility
1:50 AM
Thu, Jul 2
79 °FClear.7 mph54%30.01 "Hg10 mi
1:20 AM81 °FClear.8 mph51%30.01 "Hg10 mi
12:50 AM81 °FClear.8 mph51%30.01 "Hg10 mi
12:20 AM81 °FClear.6 mph51%30.01 "Hg10 mi
11:50 PM
Wed, Jul 1
81 °FClear.6 mph51%30.01 "Hg10 mi
10:50 PM82 °FPassing clouds.3 mph48%30.01 "HgN/A
10:20 PM82 °FPassing clouds.5 mph51%30.01 "HgN/A
9:50 PM84 °FPassing clouds.5 mph48%29.98 "HgN/A
9:20 PM86 °FPassing clouds.5 mph46%29.98 "HgN/A
8:50 PM88 °FSunny.5 mph43%29.98 "Hg10 mi
8:20 PM90 °FSunny.8 mph36%29.98 "Hg10 mi
7:50 PM91 °FPassing clouds.7 mph34%29.98 "HgN/A
7:20 PM91 °FPassing clouds.8 mph32%29.98 "HgN/A
6:50 PM91 °FPassing clouds.7 mph34%29.98 "HgN/A
6:20 PM91 °FPassing clouds.8 mph30%29.98 "HgN/A
5:50 PM91 °FPassing clouds.9 mph28%29.98 "HgN/A
5:20 PM91 °FPassing clouds.7 mph32%29.98 "HgN/A
4:50 PM91 °FPassing clouds.8 mph30%29.98 "HgN/A
4:20 PM91 °FPassing clouds.8 mph30%30.01 "HgN/A
3:50 PM91 °FPassing clouds.8 mph30%30.01 "HgN/A
3:20 PM91 °FPassing clouds.7 mph30%30.01 "HgN/A
2:50 PM91 °FPassing clouds.8 mph32%30.01 "HgN/A
2:20 PM90 °FPassing clouds.5 mph33%30.01 "HgN/A
1:50 PM90 °FPassing clouds.8 mph33%30.01 "HgN/A
1:20 PM88 °FPassing clouds.7 mph38%30.01 "HgN/A
12:50 PM86 °FPassing clouds.8 mph40%30.01 "HgN/A
12:20 PM86 °FPassing clouds.6 mph43%30.01 "HgN/A
11:50 AM84 °FPassing clouds.7 mph40%30.04 "HgN/A
11:20 AM82 °FPassing clouds.7 mph45%30.04 "HgN/A
10:50 AM81 °FPassing clouds.7 mph45%30.04 "HgN/A
10:20 AM81 °FPassing clouds.8 mph45%30.04 "HgN/A
9:50 AM77 °FSunny.8 mph44%30.04 "Hg10 mi
9:20 AM75 °FPassing clouds.8 mph44%30.04 "HgN/A
8:50 AM75 °FPassing clouds.8 mph44%30.04 "HgN/A
8:20 AM73 °FSunny.7 mph44%30.04 "Hg10 mi
7:50 AM70 °FPassing clouds.6 mph50%30.04 "HgN/A
7:20 AM70 °FPassing clouds.5 mph46%30.04 "HgN/A
6:50 AM68 °FPassing clouds.6 mph49%30.04 "HgN/A
6:20 AM68 °FClear.7 mph49%30.04 "Hg10 mi
5:50 AM66 °FPassing clouds.5 mph52%30.07 "HgN/A
5:20 AM66 °FClear.2 mph52%30.07 "Hg10 mi
4:50 AM66 °FClear.3 mph56%30.07 "Hg10 mi
4:20 AM66 °FClear.5 mph56%30.07 "Hg10 mi
3:50 AM68 °FClear.5 mph53%30.07 "Hg10 mi
3:20 AM68 °FClear.6 mph53%30.07 "Hg10 mi
Weather by CustomWeather, © 2015

See weather overviewHow to use our weather pages